Asheboro, NC

10:52 PM EST on December 14, 2017 (GMT -0500)
Asheboro Municipal

Weather History for KHBI - April, 2014

Change the Weather History Date:

Monday, April 7, 2014

  Actual Average Record
Temperature  
Mean Temperature 50 °F -  
Max Temperature 61 °F 69 °F 88 °F (1967)
Min Temperature 41 °F 43 °F 25 °F (1982)
Degree Days  
Heating Degree Days 14    
Moisture  
Dew Point 49 °F    
Average Humidity 94    
Maximum Humidity 100    
Minimum Humidity 49    
Precipitation  
Precipitation 1.43 in - - ()
Sea Level Pressure  
Sea Level Pressure 29.91 in    
Wind  
Wind Speed 2 mph (South)    
Max Wind Speed 15 mph    
Max Gust Speed 24 mph    
Visibility 8 miles    
Events Rain    
Averages and records for this station are not official NWS values.
T = Trace of Precipitation, MM = Missing Value Source: NWS Daily Summary

Daily Weather History Graph

Daily Weather History Graph

Search for Another Location

Airport or City:

Trip Planner

Search our weather history database for the weather conditions in past years. The results will help you decide how hot, cold, wet, or windy it might be!

Date:

Astronomy

Apr. 07, 2014 Rise Set
Actual Time 6:57 AM EDT 7:46 PM EDT
Civil Twilight 6:31 AM EDT 8:12 PM EDT
Nautical Twilight 6:01 AM EDT 8:42 PM EDT
Astronomical Twilight 5:29 AM EDT 9:14 PM EDT
Moon 12:57 PM EDT (4/7) 2:16 AM EDT (4/7)
Length of Visible Light 13h 40m
Length of Day
12h 48m
First Quarter, 53% of the Moon is Illuminated
Apr 7
First Quarter
Apr 15
Full
Apr 22
Last Quarter
Apr 29
New
May 6
First Quarter

Hourly Weather History & Observations

Time (EDT) Temp. Windchill Dew Point Humidity Pressure Visibility Wind Dir Wind Speed Gust Speed Precip Events Conditions
12:15 AM 54.5 °F - 35.6 °F 49% 30.10 in 10.0 mi Calm Calm - N/A   Overcast
12:35 AM 54.1 °F - 35.8 °F 50% 30.09 in 10.0 mi Calm Calm - N/A   Overcast
1:15 AM 53.8 °F - 35.6 °F 50% 30.09 in 10.0 mi Calm Calm - N/A   Overcast
1:35 AM 53.8 °F - 35.8 °F 51% 30.09 in 10.0 mi Calm Calm - N/A   Overcast
1:55 AM 52.9 °F - 37.9 °F 57% 30.09 in 10.0 mi Calm Calm - N/A Rain Light Rain
2:15 AM 51.1 °F - 40.6 °F 67% 30.07 in 10.0 mi Calm Calm - N/A   Light Drizzle
2:35 AM 50.0 °F - 43.5 °F 78% 30.07 in 7.0 mi Calm Calm - 0.01 in Rain Rain
2:55 AM 48.4 °F - 44.2 °F 86% 30.07 in 7.0 mi Calm Calm - 0.04 in Rain Light Rain
3:15 AM 47.5 °F - 46.2 °F 95% 30.05 in 10.0 mi Calm Calm - N/A   Light Drizzle
3:35 AM 47.5 °F - 46.4 °F 96% 30.04 in 10.0 mi Calm Calm - N/A Rain Light Rain
3:55 AM 47.3 °F - 46.4 °F 97% 30.03 in 10.0 mi Calm Calm - 0.01 in   Overcast
4:15 AM 47.3 °F - 45.9 °F 95% 30.02 in 10.0 mi Calm Calm - N/A Rain Light Rain
4:35 AM 46.8 °F - 45.1 °F 94% 30.02 in 10.0 mi Calm Calm - N/A Rain Light Rain
4:55 AM 46.4 °F - 45.1 °F 95% 30.02 in 7.0 mi Calm Calm - 0.02 in Rain Rain
5:15 AM 46.0 °F - 45.5 °F 98% 30.01 in 7.0 mi Calm Calm - 0.02 in Rain Rain
5:35 AM 45.7 °F - 45.0 °F 97% 30.00 in 7.0 mi Calm Calm - 0.04 in Rain Rain
5:55 AM 45.5 °F - 44.2 °F 95% 30.01 in 7.0 mi Calm Calm - 0.07 in Rain Rain
6:15 AM 44.6 °F - 43.7 °F 97% 30.01 in 5.0 mi Calm Calm - 0.06 in Rain Heavy Rain
6:35 AM 44.2 °F - 43.9 °F 99% 30.01 in 5.0 mi Calm Calm - 0.12 in Rain Rain
6:55 AM 44.4 °F - 44.1 °F 99% 30.01 in 7.0 mi Calm Calm - 0.17 in Rain Rain
7:15 AM 43.9 °F - 43.9 °F 100% 30.02 in 7.0 mi Calm Calm - 0.07 in Rain Rain
7:35 AM 43.9 °F - 43.9 °F 100% 30.01 in 5.0 mi Calm Calm - 0.20 in Rain Rain
7:55 AM 43.7 °F - 43.7 °F 100% 29.99 in 4.0 mi Calm Calm - 0.27 in Rain Light Rain
8:15 AM 43.2 °F - 43.2 °F 100% 29.99 in 5.0 mi Calm Calm - 0.04 in Rain Heavy Rain
8:35 AM 42.3 °F - 42.3 °F 100% 30.00 in 7.0 mi Calm Calm - 0.07 in Rain Light Rain
8:55 AM 41.9 °F - 41.9 °F 100% 29.99 in 5.0 mi Calm Calm - 0.11 in Rain Rain
9:15 AM 41.9 °F - 41.9 °F 100% 29.98 in 4.0 mi Calm Calm - 0.04 in Rain Rain
9:35 AM 42.1 °F - 42.1 °F 100% 29.97 in 5.0 mi Calm Calm - 0.13 in Rain Heavy Rain
9:55 AM 42.1 °F - 42.1 °F 100% 29.96 in 7.0 mi Calm Calm - 0.19 in Rain Heavy Rain
10:15 AM 42.1 °F - 42.1 °F 100% 30.00 in 1.8 mi Calm Calm - 0.13 in Rain Heavy Rain
10:35 AM 42.3 °F - 42.3 °F 100% 30.02 in 4.0 mi Calm Calm - 0.28 in Rain Rain
10:55 AM 42.8 °F - 42.8 °F 100% 30.03 in 2.0 mi Calm Calm - 0.40 in Rain Heavy Rain
11:15 AM 43.0 °F - 43.0 °F 100% 30.01 in 5.0 mi Calm Calm - 0.03 in Rain Rain
11:35 AM 43.7 °F - 43.7 °F 100% 29.99 in 5.0 mi Calm Calm - 0.09 in Rain Heavy Rain
11:55 AM 43.9 °F - 43.9 °F 100% 29.97 in 10.0 mi Calm Calm - 0.12 in Rain Light Rain
12:15 PM 44.6 °F - 44.6 °F 100% 29.92 in 10.0 mi Calm Calm - N/A Rain Light Rain
12:35 PM 46.0 °F 39.9 °F 46.0 °F 100% 29.87 in 10.0 mi SE 13.8 mph 20.7 mph 0.01 in Rain Light Rain
12:55 PM 47.5 °F - 47.5 °F 100% 29.88 in 10.0 mi SSE 8.1 mph 16.1 mph 0.02 in Rain Light Rain
1:15 PM 49.1 °F - 49.1 °F 100% 29.87 in 10.0 mi SSE 8.1 mph - N/A   Clear
1:35 PM 49.5 °F - 49.5 °F 100% 29.87 in 10.0 mi SSE 5.8 mph - N/A   Clear
1:55 PM 50.7 °F - 50.7 °F 100% 29.89 in 10.0 mi WSW 4.6 mph - N/A   Clear
2:15 PM 52.2 °F - 52.2 °F 100% 29.90 in 10.0 mi West 4.6 mph - N/A Rain Light Rain
2:35 PM 51.8 °F - 51.8 °F 100% 29.89 in 10.0 mi SW 5.8 mph - N/A Rain Light Rain
2:55 PM 52.0 °F - 52.0 °F 100% 29.89 in 10.0 mi SSW 3.5 mph - 0.01 in Rain Light Rain
3:15 PM 52.9 °F - 52.9 °F 100% 29.86 in 10.0 mi SSW 10.4 mph 16.1 mph N/A   Light Drizzle
3:35 PM 53.8 °F - 53.8 °F 100% 29.83 in 10.0 mi South 15.0 mph 19.6 mph N/A   Mostly Cloudy
3:55 PM 54.5 °F - 54.1 °F 99% 29.83 in 10.0 mi Calm Calm - N/A Rain Light Rain
4:15 PM 55.4 °F - 54.7 °F 97% 29.79 in 10.0 mi Calm Calm - N/A Rain Light Rain
4:35 PM 53.4 °F - 53.1 °F 99% 29.80 in 10.0 mi West 4.6 mph - N/A   Mostly Cloudy
4:55 PM 53.8 °F - 53.6 °F 99% 29.80 in 10.0 mi Calm Calm - N/A   Scattered Clouds
5:15 PM 53.8 °F - 53.4 °F 99% 29.78 in 10.0 mi Calm Calm - N/A   Clear
5:35 PM 54.1 °F - 53.6 °F 98% 29.76 in 10.0 mi Calm Calm - N/A   Clear
5:55 PM 54.5 °F - 53.6 °F 97% 29.76 in 10.0 mi Calm Calm - N/A   Clear
6:15 PM 54.7 °F - 54.5 °F 99% 29.76 in 10.0 mi Calm Calm - N/A   Clear
6:35 PM 55.4 °F - 54.9 °F 98% 29.76 in 10.0 mi South 4.6 mph - N/A   Clear
6:55 PM 55.4 °F - 55.0 °F 99% 29.76 in 10.0 mi South 3.5 mph - N/A   Clear
7:15 PM 56.8 °F - 55.6 °F 96% 29.74 in 10.0 mi SSE 9.2 mph - N/A   Scattered Clouds
7:35 PM 57.2 °F - 55.8 °F 95% 29.74 in 10.0 mi South 10.4 mph - N/A   Scattered Clouds
7:55 PM 57.7 °F - 56.3 °F 95% 29.73 in 10.0 mi SSE 13.8 mph 19.6 mph N/A Rain Light Rain
8:15 PM 58.8 °F - 56.8 °F 93% 29.73 in 10.0 mi South 15.0 mph 18.4 mph N/A   Light Drizzle
8:35 PM 59.5 °F - 57.6 °F 93% 29.74 in 10.0 mi South 11.5 mph - N/A   Clear
8:55 PM 59.5 °F - 57.7 °F 94% 29.75 in 10.0 mi South 12.7 mph 20.7 mph N/A   Scattered Clouds
9:15 PM 59.5 °F - 58.1 °F 95% 29.76 in 10.0 mi South 12.7 mph 24.2 mph N/A   Mostly Cloudy
9:35 PM 59.9 °F - 58.3 °F 94% 29.76 in 10.0 mi South 15.0 mph 21.9 mph N/A   Overcast
9:55 PM 60.1 °F - 58.3 °F 94% 29.75 in 10.0 mi South 11.5 mph 18.4 mph N/A   Mostly Cloudy
10:15 PM 60.8 °F - 58.5 °F 92% 29.74 in 10.0 mi South 10.4 mph 17.3 mph N/A   Mostly Cloudy
10:35 PM 60.8 °F - 58.6 °F 93% 29.74 in 10.0 mi South 4.6 mph 18.4 mph N/A   Overcast
10:55 PM 60.8 °F - 59.0 °F 94% 29.72 in 10.0 mi South 10.4 mph - N/A Rain Light Rain
11:15 PM 60.8 °F - 59.2 °F 94% 29.71 in 10.0 mi South 11.5 mph 18.4 mph N/A   Overcast
11:35 PM 60.8 °F - 59.4 °F 95% 29.69 in 10.0 mi South 9.2 mph 17.3 mph N/A   Overcast
11:55 PM 61.0 °F - 59.4 °F 94% 29.69 in 10.0 mi South 9.2 mph - N/A   Overcast